owner,sensor,date,latitude,longitude,air_pressure(mBar),qcFlag 
COMPS,ioos:station:USF.COMPS:CAM:1,2014-12-01T14:00:00Z,27.7650,-82.6490,1025.21,1111122 
COMPS,ioos:station:USF.COMPS:CAM:1,2014-12-01T14:06:00Z,27.7650,-82.6490,1025.21,1111122 
COMPS,ioos:station:USF.COMPS:CAM:1,2014-12-01T14:12:00Z,27.7650,-82.6490,1025.22,1111122 
COMPS,ioos:station:USF.COMPS:CAM:1,2014-12-01T14:18:00Z,27.7650,-82.6490,1025.28,1111122 
COMPS,ioos:station:USF.COMPS:CAM:1,2014-12-01T14:24:00Z,27.7650,-82.6490,1025.24,1111122 
COMPS,ioos:station:USF.COMPS:CAM:1,2014-12-01T14:30:00Z,27.7650,-82.6490,1025.3,1111122 
COMPS,ioos:station:USF.COMPS:CAM:1,2014-12-01T14:36:00Z,27.7650,-82.6490,1025.34,1111122 
COMPS,ioos:station:USF.COMPS:CAM:1,2014-12-01T14:42:00Z,27.7650,-82.6490,1025.33,1111122 
COMPS,ioos:station:USF.COMPS:CAM:1,2014-12-01T14:48:00Z,27.7650,-82.6490,1025.33,1111122 
COMPS,ioos:station:USF.COMPS:CAM:1,2014-12-01T14:54:00Z,27.7650,-82.6490,1025.33,1111122 
COMPS,ioos:station:USF.COMPS:CAM:1,2014-12-01T15:00:00Z,27.7650,-82.6490,1025.3,1111122 
COMPS,ioos:station:USF.COMPS:CAM:1,2014-12-01T15:06:00Z,27.7650,-82.6490,1025.24,1111122 
COMPS,ioos:station:USF.COMPS:CAM:1,2014-12-01T15:12:00Z,27.7650,-82.6490,1025.22,1111122 
COMPS,ioos:station:USF.COMPS:CAM:1,2014-12-01T15:18:00Z,27.7650,-82.6490,1025.14,1111122 
COMPS,ioos:station:USF.COMPS:CAM:1,2014-12-01T15:24:00Z,27.7650,-82.6490,1025.08,1111122 
COMPS,ioos:station:USF.COMPS:CAM:1,2014-12-01T15:30:00Z,27.7650,-82.6490,1025.04,1111122 
COMPS,ioos:station:USF.COMPS:CAM:1,2014-12-01T15:36:00Z,27.7650,-82.6490,1024.97,1111122 
COMPS,ioos:station:USF.COMPS:CAM:1,2014-12-01T15:42:00Z,27.7650,-82.6490,1024.9,1111122 
COMPS,ioos:station:USF.COMPS:CAM:1,2014-12-01T15:48:00Z,27.7650,-82.6490,1024.85,1111122 
COMPS,ioos:station:USF.COMPS:CAM:1,2014-12-01T15:54:00Z,27.7650,-82.6490,1024.77,1111122 
COMPS,ioos:station:USF.COMPS:CAM:1,2014-12-01T16:00:00Z,27.7650,-82.6490,1024.72,1111122 
COMPS,ioos:station:USF.COMPS:CAM:1,2014-12-01T16:06:00Z,27.7650,-82.6490,1024.62,1111122 
COMPS,ioos:station:USF.COMPS:CAM:1,2014-12-01T16:12:00Z,27.7650,-82.6490,1024.53,1111122 
COMPS,ioos:station:USF.COMPS:CAM:1,2014-12-01T16:18:00Z,27.7650,-82.6490,1024.44,1111122 
COMPS,ioos:station:USF.COMPS:CAM:1,2014-12-01T16:24:00Z,27.7650,-82.6490,1024.36,1111122 
COMPS,ioos:station:USF.COMPS:CAM:1,2014-12-01T16:30:00Z,27.7650,-82.6490,1024.22,1111122 
COMPS,ioos:station:USF.COMPS:CAM:1,2014-12-01T16:36:00Z,27.7650,-82.6490,1024.13,1111122 
COMPS,ioos:station:USF.COMPS:CAM:1,2014-12-01T16:42:00Z,27.7650,-82.6490,1024.04,1111122 
COMPS,ioos:station:USF.COMPS:CAM:1,2014-12-01T16:48:00Z,27.7650,-82.6490,1023.92,1111122 
COMPS,ioos:station:USF.COMPS:CAM:1,2014-12-01T16:54:00Z,27.7650,-82.6490,1023.81,1111122 
COMPS,ioos:station:USF.COMPS:CAM:1,2014-12-01T17:00:00Z,27.7650,-82.6490,1023.73,1111122 
COMPS,ioos:station:USF.COMPS:CAM:1,2014-12-01T17:06:00Z,27.7650,-82.6490,1023.62,1111122 
COMPS,ioos:station:USF.COMPS:CAM:1,2014-12-01T17:12:00Z,27.7650,-82.6490,1023.54,1111122 
COMPS,ioos:station:USF.COMPS:CAM:1,2014-12-01T17:18:00Z,27.7650,-82.6490,1023.48,1111122 
COMPS,ioos:station:USF.COMPS:CAM:1,2014-12-01T17:24:00Z,27.7650,-82.6490,1023.36,1111122 
COMPS,ioos:station:USF.COMPS:CAM:1,2014-12-01T17:30:00Z,27.7650,-82.6490,1023.24,1111122 
COMPS,ioos:station:USF.COMPS:CAM:1,2014-12-01T17:36:00Z,27.7650,-82.6490,1023.12,1111122 
COMPS,ioos:station:USF.COMPS:CAM:1,2014-12-01T17:42:00Z,27.7650,-82.6490,1022.93,1111122 
COMPS,ioos:station:USF.COMPS:CAM:1,2014-12-01T17:48:00Z,27.7650,-82.6490,1022.81,1111122 
COMPS,ioos:station:USF.COMPS:CAM:1,2014-12-01T17:54:00Z,27.7650,-82.6490,1022.68,1111122 
COMPS,ioos:station:USF.COMPS:CAM:1,2014-12-01T18:00:00Z,27.7650,-82.6490,1022.52,1111122 
COMPS,ioos:station:USF.COMPS:CAM:1,2014-12-01T18:06:00Z,27.7650,-82.6490,1022.37,1111122 
COMPS,ioos:station:USF.COMPS:CAM:1,2014-12-01T18:12:00Z,27.7650,-82.6490,1022.26,1111122 
COMPS,ioos:station:USF.COMPS:CAM:1,2014-12-01T18:18:00Z,27.7650,-82.6490,1022.26,1111122 
COMPS,ioos:station:USF.COMPS:CAM:1,2014-12-01T18:24:00Z,27.7650,-82.6490,1022.2,1111122 
COMPS,ioos:station:USF.COMPS:CAM:1,2014-12-01T18:30:00Z,27.7650,-82.6490,1022.05,1111122 
COMPS,ioos:station:USF.COMPS:CAM:1,2014-12-01T18:36:00Z,27.7650,-82.6490,1021.97,1111122 
COMPS,ioos:station:USF.COMPS:CAM:1,2014-12-01T18:42:00Z,27.7650,-82.6490,1021.88,1111122 
COMPS,ioos:station:USF.COMPS:CAM:1,2014-12-01T18:48:00Z,27.7650,-82.6490,1021.73,1111122 
COMPS,ioos:station:USF.COMPS:CAM:1,2014-12-01T18:54:00Z,27.7650,-82.6490,1021.61,1111122 
COMPS,ioos:station:USF.COMPS:CAM:1,2014-12-01T19:00:00Z,27.7650,-82.6490,1021.46,1111122 
COMPS,ioos:station:USF.COMPS:CAM:1,2014-12-01T19:06:00Z,27.7650,-82.6490,1021.41,1111122 
COMPS,ioos:station:USF.COMPS:CAM:1,2014-12-01T19:12:00Z,27.7650,-82.6490,1021.34,1111122 
COMPS,ioos:station:USF.COMPS:CAM:1,2014-12-01T19:18:00Z,27.7650,-82.6490,1021.25,1111122 
COMPS,ioos:station:USF.COMPS:CAM:1,2014-12-01T19:24:00Z,27.7650,-82.6490,1021.13,1111122 
COMPS,ioos:station:USF.COMPS:CAM:1,2014-12-01T19:30:00Z,27.7650,-82.6490,1021.14,1111122 
COMPS,ioos:station:USF.COMPS:CAM:1,2014-12-01T19:36:00Z,27.7650,-82.6490,1021.13,1111122 
COMPS,ioos:station:USF.COMPS:CAM:1,2014-12-01T19:42:00Z,27.7650,-82.6490,1021.09,1111122 
COMPS,ioos:station:USF.COMPS:CAM:1,2014-12-01T19:48:00Z,27.7650,-82.6490,1021.05,1111122 
COMPS,ioos:station:USF.COMPS:CAM:1,2014-12-01T19:54:00Z,27.7650,-82.6490,1020.93,1111122 
COMPS,ioos:station:USF.COMPS:CAM:1,2014-12-02T18:00:00Z,27.7650,-82.6490,1020.36,1111122 
COMPS,ioos:station:USF.COMPS:CAM:1,2014-12-02T18:06:00Z,27.7650,-82.6490,1020.25,1111122 
COMPS,ioos:station:USF.COMPS:CAM:1,2014-12-02T18:12:00Z,27.7650,-82.6490,1020.14,1111122 
COMPS,ioos:station:USF.COMPS:CAM:1,2014-12-02T18:18:00Z,27.7650,-82.6490,1019.98,1111122 
COMPS,ioos:station:USF.COMPS:CAM:1,2014-12-02T18:24:00Z,27.7650,-82.6490,1019.93,1111122 
COMPS,ioos:station:USF.COMPS:CAM:1,2014-12-02T18:30:00Z,27.7650,-82.6490,1019.85,1111122 
COMPS,ioos:station:USF.COMPS:CAM:1,2014-12-02T18:36:00Z,27.7650,-82.6490,1019.76,1111122 
COMPS,ioos:station:USF.COMPS:CAM:1,2014-12-02T18:42:00Z,27.7650,-82.6490,1019.61,1111122 
COMPS,ioos:station:USF.COMPS:CAM:1,2014-12-02T18:48:00Z,27.7650,-82.6490,1019.54,1111122 
COMPS,ioos:station:USF.COMPS:CAM:1,2014-12-02T18:54:00Z,27.7650,-82.6490,1019.46,1111122 
COMPS,ioos:station:USF.COMPS:CAM:1,2014-12-03T15:00:00Z,27.7650,-82.6490,1020.9,1111122 
COMPS,ioos:station:USF.COMPS:CAM:1,2014-12-03T15:06:00Z,27.7650,-82.6490,1020.93,1111122 
COMPS,ioos:station:USF.COMPS:CAM:1,2014-12-03T15:12:00Z,27.7650,-82.6490,1020.92,1111122 
COMPS,ioos:station:USF.COMPS:CAM:1,2014-12-03T15:18:00Z,27.7650,-82.6490,1020.92,1111122 
COMPS,ioos:station:USF.COMPS:CAM:1,2014-12-03T15:24:00Z,27.7650,-82.6490,1020.9,1111122 
COMPS,ioos:station:USF.COMPS:CAM:1,2014-12-03T15:30:00Z,27.7650,-82.6490,1020.97,1111122 
COMPS,ioos:station:USF.COMPS:CAM:1,2014-12-03T15:36:00Z,27.7650,-82.6490,1020.92,1111122 
COMPS,ioos:station:USF.COMPS:CAM:1,2014-12-03T15:42:00Z,27.7650,-82.6490,1020.89,1111122 
COMPS,ioos:station:USF.COMPS:CAM:1,2014-12-03T15:48:00Z,27.7650,-82.6490,1020.78,1111122 
COMPS,ioos:station:USF.COMPS:CAM:1,2014-12-03T15:54:00Z,27.7650,-82.6490,1020.7,1111122 
COMPS,ioos:station:USF.COMPS:CAM:1,2014-12-03T16:00:00Z,27.7650,-82.6490,1020.69,1111122 
COMPS,ioos:station:USF.COMPS:CAM:1,2014-12-03T16:06:00Z,27.7650,-82.6490,1020.64,1111122 
COMPS,ioos:station:USF.COMPS:CAM:1,2014-12-03T16:12:00Z,27.7650,-82.6490,1020.6,1111122 
COMPS,ioos:station:USF.COMPS:CAM:1,2014-12-03T16:18:00Z,27.7650,-82.6490,1020.49,1111122 
COMPS,ioos:station:USF.COMPS:CAM:1,2014-12-03T16:24:00Z,27.7650,-82.6490,1020.41,1111122 
COMPS,ioos:station:USF.COMPS:CAM:1,2014-12-03T16:30:00Z,27.7650,-82.6490,1020.4,1111122 
COMPS,ioos:station:USF.COMPS:CAM:1,2014-12-03T16:36:00Z,27.7650,-82.6490,1020.37,1111122 
COMPS,ioos:station:USF.COMPS:CAM:1,2014-12-03T16:42:00Z,27.7650,-82.6490,1020.41,1111122 
COMPS,ioos:station:USF.COMPS:CAM:1,2014-12-03T16:48:00Z,27.7650,-82.6490,1020.4,1111122 
COMPS,ioos:station:USF.COMPS:CAM:1,2014-12-03T16:54:00Z,27.7650,-82.6490,1020.38,1111122 
COMPS,ioos:station:USF.COMPS:CAM:1,2014-12-03T17:00:00Z,27.7650,-82.6490,1020.3,1111122 
COMPS,ioos:station:USF.COMPS:CAM:1,2014-12-03T17:06:00Z,27.7650,-82.6490,1020.26,1111122 
COMPS,ioos:station:USF.COMPS:CAM:1,2014-12-03T17:12:00Z,27.7650,-82.6490,1020.21,1111122 
COMPS,ioos:station:USF.COMPS:CAM:1,2014-12-03T17:18:00Z,27.7650,-82.6490,1020.18,1111122 
COMPS,ioos:station:USF.COMPS:CAM:1,2014-12-03T17:24:00Z,27.7650,-82.6490,1020.09,1111122 
COMPS,ioos:station:USF.COMPS:CAM:1,2014-12-03T17:30:00Z,27.7650,-82.6490,1020.02,1111122 
COMPS,ioos:station:USF.COMPS:CAM:1,2014-12-03T17:36:00Z,27.7650,-82.6490,1019.89,1111122 
COMPS,ioos:station:USF.COMPS:CAM:1,2014-12-03T17:42:00Z,27.7650,-82.6490,1019.8,1111122 
COMPS,ioos:station:USF.COMPS:CAM:1,2014-12-03T17:48:00Z,27.7650,-82.6490,1019.61,1111122 
COMPS,ioos:station:USF.COMPS:CAM:1,2014-12-03T17:54:00Z,27.7650,-82.6490,1019.52,1111122 
COMPS,ioos:station:USF.COMPS:CAM:1,2014-12-03T18:00:00Z,27.7650,-82.6490,1019.41,1111122 
COMPS,ioos:station:USF.COMPS:CAM:1,2014-12-03T18:06:00Z,27.7650,-82.6490,1019.24,1111122 
COMPS,ioos:station:USF.COMPS:CAM:1,2014-12-03T18:12:00Z,27.7650,-82.6490,1019.12,1111122 
COMPS,ioos:station:USF.COMPS:CAM:1,2014-12-03T18:18:00Z,27.7650,-82.6490,1018.97,1111122 
COMPS,ioos:station:USF.COMPS:CAM:1,2014-12-03T18:24:00Z,27.7650,-82.6490,1018.9,1111122 
COMPS,ioos:station:USF.COMPS:CAM:1,2014-12-03T18:30:00Z,27.7650,-82.6490,1018.84,1111122 
COMPS,ioos:station:USF.COMPS:CAM:1,2014-12-03T18:36:00Z,27.7650,-82.6490,1018.73,1111122 
COMPS,ioos:station:USF.COMPS:CAM:1,2014-12-03T18:42:00Z,27.7650,-82.6490,1018.68,1111122 
COMPS,ioos:station:USF.COMPS:CAM:1,2014-12-03T18:48:00Z,27.7650,-82.6490,1018.62,1111122 
COMPS,ioos:station:USF.COMPS:CAM:1,2014-12-03T18:54:00Z,27.7650,-82.6490,1018.56,1111122 
COMPS,ioos:station:USF.COMPS:CAM:1,2014-12-03T19:54:00Z,27.7650,-82.6490,1017.85,1111122 
COMPS,ioos:station:USF.COMPS:CAM:1,2014-12-03T20:24:00Z,27.7650,-82.6490,1017.89,1111122 
COMPS,ioos:station:USF.COMPS:CAM:1,2014-12-03T20:30:00Z,27.7650,-82.6490,1017.94,1111122 
COMPS,ioos:station:USF.COMPS:CAM:1,2014-12-03T20:36:00Z,27.7650,-82.6490,1017.93,1111122 
COMPS,ioos:station:USF.COMPS:CAM:1,2014-12-03T20:42:00Z,27.7650,-82.6490,1017.93,1111122 
COMPS,ioos:station:USF.COMPS:CAM:1,2014-12-03T20:48:00Z,27.7650,-82.6490,1017.82,1111122 
COMPS,ioos:station:USF.COMPS:CAM:1,2014-12-03T20:54:00Z,27.7650,-82.6490,1017.81,1111122 
COMPS,ioos:station:USF.COMPS:CAM:1,2014-12-04T14:00:00Z,27.7650,-82.6490,1021.6,1111122 
COMPS,ioos:station:USF.COMPS:CAM:1,2014-12-04T14:06:00Z,27.7650,-82.6490,1021.61,1111122 
COMPS,ioos:station:USF.COMPS:CAM:1,2014-12-04T14:12:00Z,27.7650,-82.6490,1021.66,1111122 
COMPS,ioos:station:USF.COMPS:CAM:1,2014-12-04T14:18:00Z,27.7650,-82.6490,1021.66,1111122 
COMPS,ioos:station:USF.COMPS:CAM:1,2014-12-04T14:24:00Z,27.7650,-82.6490,1021.66,1111122 
COMPS,ioos:station:USF.COMPS:CAM:1,2014-12-04T14:30:00Z,27.7650,-82.6490,1021.66,1111122 
COMPS,ioos:station:USF.COMPS:CAM:1,2014-12-04T14:36:00Z,27.7650,-82.6490,1021.66,1111122 
COMPS,ioos:station:USF.COMPS:CAM:1,2014-12-04T14:42:00Z,27.7650,-82.6490,1021.78,1111122 
COMPS,ioos:station:USF.COMPS:CAM:1,2014-12-04T14:48:00Z,27.7650,-82.6490,1021.8,1111122 
COMPS,ioos:station:USF.COMPS:CAM:1,2014-12-04T14:54:00Z,27.7650,-82.6490,1021.78,1111122 
COMPS,ioos:station:USF.COMPS:CAM:1,2014-12-04T15:00:00Z,27.7650,-82.6490,1021.78,1111122 
COMPS,ioos:station:USF.COMPS:CAM:1,2014-12-04T15:06:00Z,27.7650,-82.6490,1021.73,1111122 
COMPS,ioos:station:USF.COMPS:CAM:1,2014-12-04T15:12:00Z,27.7650,-82.6490,1021.72,1111122 
COMPS,ioos:station:USF.COMPS:CAM:1,2014-12-04T15:18:00Z,27.7650,-82.6490,1021.62,1111122 
COMPS,ioos:station:USF.COMPS:CAM:1,2014-12-04T15:24:00Z,27.7650,-82.6490,1021.61,1111122 
COMPS,ioos:station:USF.COMPS:CAM:1,2014-12-04T15:30:00Z,27.7650,-82.6490,1021.61,1111122 
COMPS,ioos:station:USF.COMPS:CAM:1,2014-12-04T15:36:00Z,27.7650,-82.6490,1021.56,1111122 
COMPS,ioos:station:USF.COMPS:CAM:1,2014-12-04T15:42:00Z,27.7650,-82.6490,1021.49,1111122 
COMPS,ioos:station:USF.COMPS:CAM:1,2014-12-04T15:48:00Z,27.7650,-82.6490,1021.41,1111122 
COMPS,ioos:station:USF.COMPS:CAM:1,2014-12-04T15:54:00Z,27.7650,-82.6490,1021.34,1111122 
COMPS,ioos:station:USF.COMPS:CAM:1,2014-12-04T16:00:00Z,27.7650,-82.6490,1021.26,1111122 
COMPS,ioos:station:USF.COMPS:CAM:1,2014-12-04T16:06:00Z,27.7650,-82.6490,1021.16,1111122 
COMPS,ioos:station:USF.COMPS:CAM:1,2014-12-04T16:12:00Z,27.7650,-82.6490,1021.08,1111122 
COMPS,ioos:station:USF.COMPS:CAM:1,2014-12-04T16:18:00Z,27.7650,-82.6490,1021.01,1111122 
COMPS,ioos:station:USF.COMPS:CAM:1,2014-12-04T16:24:00Z,27.7650,-82.6490,1020.88,1111122 
COMPS,ioos:station:USF.COMPS:CAM:1,2014-12-04T16:30:00Z,27.7650,-82.6490,1020.73,1111122 
COMPS,ioos:station:USF.COMPS:CAM:1,2014-12-04T16:36:00Z,27.7650,-82.6490,1020.64,1111122 
COMPS,ioos:station:USF.COMPS:CAM:1,2014-12-04T16:42:00Z,27.7650,-82.6490,1020.52,1111122 
COMPS,ioos:station:USF.COMPS:CAM:1,2014-12-04T16:48:00Z,27.7650,-82.6490,1020.48,1111122 
COMPS,ioos:station:USF.COMPS:CAM:1,2014-12-04T16:54:00Z,27.7650,-82.6490,1020.4,1111122 
COMPS,ioos:station:USF.COMPS:CAM:1,2014-12-04T17:00:00Z,27.7650,-82.6490,1020.37,1111122 
COMPS,ioos:station:USF.COMPS:CAM:1,2014-12-04T17:06:00Z,27.7650,-82.6490,1020.3,1111122 
COMPS,ioos:station:USF.COMPS:CAM:1,2014-12-04T17:12:00Z,27.7650,-82.6490,1020.25,1111122 
COMPS,ioos:station:USF.COMPS:CAM:1,2014-12-04T17:18:00Z,27.7650,-82.6490,1020.2,1111122 
COMPS,ioos:station:USF.COMPS:CAM:1,2014-12-04T17:24:00Z,27.7650,-82.6490,1020.12,1111122 
COMPS,ioos:station:USF.COMPS:CAM:1,2014-12-04T17:30:00Z,27.7650,-82.6490,1020.04,1111122 
COMPS,ioos:station:USF.COMPS:CAM:1,2014-12-04T17:36:00Z,27.7650,-82.6490,1019.89,1111122 
COMPS,ioos:station:USF.COMPS:CAM:1,2014-12-04T17:42:00Z,27.7650,-82.6490,1019.8,1111122 
COMPS,ioos:station:USF.COMPS:CAM:1,2014-12-04T17:48:00Z,27.7650,-82.6490,1019.74,1111122 
COMPS,ioos:station:USF.COMPS:CAM:1,2014-12-04T17:54:00Z,27.7650,-82.6490,1019.69,1111122 
COMPS,ioos:station:USF.COMPS:CAM:1,2014-12-04T18:00:00Z,27.7650,-82.6490,1019.54,1111122 
COMPS,ioos:station:USF.COMPS:CAM:1,2014-12-04T18:06:00Z,27.7650,-82.6490,1019.38,1111122 
COMPS,ioos:station:USF.COMPS:CAM:1,2014-12-04T18:12:00Z,27.7650,-82.6490,1019.28,1111122 
COMPS,ioos:station:USF.COMPS:CAM:1,2014-12-04T18:18:00Z,27.7650,-82.6490,1019.25,1111122 
COMPS,ioos:station:USF.COMPS:CAM:1,2014-12-04T18:24:00Z,27.7650,-82.6490,1019.16,1111122 
COMPS,ioos:station:USF.COMPS:CAM:1,2014-12-04T18:30:00Z,27.7650,-82.6490,1019.14,1111122 
COMPS,ioos:station:USF.COMPS:CAM:1,2014-12-04T18:36:00Z,27.7650,-82.6490,1019.12,1111122 
COMPS,ioos:station:USF.COMPS:CAM:1,2014-12-04T18:42:00Z,27.7650,-82.6490,1019.02,1111122 
COMPS,ioos:station:USF.COMPS:CAM:1,2014-12-04T18:48:00Z,27.7650,-82.6490,1018.93,1111122 
COMPS,ioos:station:USF.COMPS:CAM:1,2014-12-04T18:54:00Z,27.7650,-82.6490,1018.89,1111122 
COMPS,ioos:station:USF.COMPS:CAM:1,2014-12-04T19:00:00Z,27.7650,-82.6490,1018.88,1111122 
COMPS,ioos:station:USF.COMPS:CAM:1,2014-12-04T19:06:00Z,27.7650,-82.6490,1018.86,1111122 
COMPS,ioos:station:USF.COMPS:CAM:1,2014-12-04T19:12:00Z,27.7650,-82.6490,1018.85,1111122 
COMPS,ioos:station:USF.COMPS:CAM:1,2014-12-04T19:18:00Z,27.7650,-82.6490,1018.82,1111122 
COMPS,ioos:station:USF.COMPS:CAM:1,2014-12-04T19:24:00Z,27.7650,-82.6490,1018.78,1111122 
COMPS,ioos:station:USF.COMPS:CAM:1,2014-12-04T19:30:00Z,27.7650,-82.6490,1018.69,1111122 
COMPS,ioos:station:USF.COMPS:CAM:1,2014-12-04T19:36:00Z,27.7650,-82.6490,1018.65,1111122 
COMPS,ioos:station:USF.COMPS:CAM:1,2014-12-04T19:42:00Z,27.7650,-82.6490,1018.58,1111122 
COMPS,ioos:station:USF.COMPS:CAM:1,2014-12-04T19:48:00Z,27.7650,-82.6490,1018.5,1111122 
COMPS,ioos:station:USF.COMPS:CAM:1,2014-12-04T19:54:00Z,27.7650,-82.6490,1018.48,1111122 
COMPS,ioos:station:USF.COMPS:CAM:1,2014-12-04T20:00:00Z,27.7650,-82.6490,1018.38,1111122 
COMPS,ioos:station:USF.COMPS:CAM:1,2014-12-04T20:06:00Z,27.7650,-82.6490,1018.32,1111122 
COMPS,ioos:station:USF.COMPS:CAM:1,2014-12-04T20:12:00Z,27.7650,-82.6490,1018.32,1111122 
COMPS,ioos:station:USF.COMPS:CAM:1,2014-12-04T20:18:00Z,27.7650,-82.6490,1018.32,1111122 
COMPS,ioos:station:USF.COMPS:CAM:1,2014-12-04T20:24:00Z,27.7650,-82.6490,1018.3,1111122 
COMPS,ioos:station:USF.COMPS:CAM:1,2014-12-04T20:30:00Z,27.7650,-82.6490,1018.32,1111122 
COMPS,ioos:station:USF.COMPS:CAM:1,2014-12-04T20:36:00Z,27.7650,-82.6490,1018.34,1111122 
COMPS,ioos:station:USF.COMPS:CAM:1,2014-12-04T20:42:00Z,27.7650,-82.6490,1018.41,1111122 
COMPS,ioos:station:USF.COMPS:CAM:1,2014-12-04T20:48:00Z,27.7650,-82.6490,1018.45,1111122 
COMPS,ioos:station:USF.COMPS:CAM:1,2014-12-04T20:54:00Z,27.7650,-82.6490,1018.45,1111122 
COMPS,ioos:station:USF.COMPS:CAM:1,2014-12-05T15:00:00Z,27.7650,-82.6490,1022.82,1111122 
COMPS,ioos:station:USF.COMPS:CAM:1,2014-12-05T15:06:00Z,27.7650,-82.6490,1022.82,1111122 
COMPS,ioos:station:USF.COMPS:CAM:1,2014-12-05T15:12:00Z,27.7650,-82.6490,1022.81,1111122 
COMPS,ioos:station:USF.COMPS:CAM:1,2014-12-05T15:18:00Z,27.7650,-82.6490,1022.72,1111122 
COMPS,ioos:station:USF.COMPS:CAM:1,2014-12-05T15:24:00Z,27.7650,-82.6490,1022.7,1111122 
COMPS,ioos:station:USF.COMPS:CAM:1,2014-12-05T15:30:00Z,27.7650,-82.6490,1022.7,1111122 
COMPS,ioos:station:USF.COMPS:CAM:1,2014-12-05T15:36:00Z,27.7650,-82.6490,1022.65,1111122 
COMPS,ioos:station:USF.COMPS:CAM:1,2014-12-05T15:42:00Z,27.7650,-82.6490,1022.64,1111122 
COMPS,ioos:station:USF.COMPS:CAM:1,2014-12-05T15:48:00Z,27.7650,-82.6490,1022.56,1111122 
COMPS,ioos:station:USF.COMPS:CAM:1,2014-12-05T15:54:00Z,27.7650,-82.6490,1022.5,1111122 
COMPS,ioos:station:USF.COMPS:CAM:1,2014-12-05T16:00:00Z,27.7650,-82.6490,1022.44,1111122 
COMPS,ioos:station:USF.COMPS:CAM:1,2014-12-05T16:06:00Z,27.7650,-82.6490,1022.4,1111122 
COMPS,ioos:station:USF.COMPS:CAM:1,2014-12-05T16:12:00Z,27.7650,-82.6490,1022.38,1111122 
COMPS,ioos:station:USF.COMPS:CAM:1,2014-12-05T16:18:00Z,27.7650,-82.6490,1022.28,1111122 
COMPS,ioos:station:USF.COMPS:CAM:1,2014-12-05T16:24:00Z,27.7650,-82.6490,1022.26,1111122 
COMPS,ioos:station:USF.COMPS:CAM:1,2014-12-05T16:30:00Z,27.7650,-82.6490,1022.26,1111122 
COMPS,ioos:station:USF.COMPS:CAM:1,2014-12-05T16:36:00Z,27.7650,-82.6490,1022.25,1111122 
COMPS,ioos:station:USF.COMPS:CAM:1,2014-12-05T16:42:00Z,27.7650,-82.6490,1022.22,1111122 
COMPS,ioos:station:USF.COMPS:CAM:1,2014-12-05T16:48:00Z,27.7650,-82.6490,1022.09,1111122 
COMPS,ioos:station:USF.COMPS:CAM:1,2014-12-05T16:54:00Z,27.7650,-82.6490,1021.98,1111122 
COMPS,ioos:station:USF.COMPS:CAM:1,2014-12-05T17:00:00Z,27.7650,-82.6490,1021.94,1111122 
COMPS,ioos:station:USF.COMPS:CAM:1,2014-12-05T17:06:00Z,27.7650,-82.6490,1021.81,1111122 
COMPS,ioos:station:USF.COMPS:CAM:1,2014-12-05T17:12:00Z,27.7650,-82.6490,1021.68,1111122 
COMPS,ioos:station:USF.COMPS:CAM:1,2014-12-05T17:18:00Z,27.7650,-82.6490,1021.56,1111122 
COMPS,ioos:station:USF.COMPS:CAM:1,2014-12-05T17:24:00Z,27.7650,-82.6490,1021.48,1111122 
COMPS,ioos:station:USF.COMPS:CAM:1,2014-12-05T17:30:00Z,27.7650,-82.6490,1021.36,1111122 
COMPS,ioos:station:USF.COMPS:CAM:1,2014-12-05T17:36:00Z,27.7650,-82.6490,1021.2,1111122 
COMPS,ioos:station:USF.COMPS:CAM:1,2014-12-05T17:42:00Z,27.7650,-82.6490,1021.05,1111122 
COMPS,ioos:station:USF.COMPS:CAM:1,2014-12-05T17:48:00Z,27.7650,-82.6490,1020.98,1111122 
COMPS,ioos:station:USF.COMPS:CAM:1,2014-12-05T17:54:00Z,27.7650,-82.6490,1020.89,1111122 
COMPS,ioos:station:USF.COMPS:CAM:1,2014-12-05T19:00:00Z,27.7650,-82.6490,1020.32,1111122 
COMPS,ioos:station:USF.COMPS:CAM:1,2014-12-05T19:06:00Z,27.7650,-82.6490,1020.29,1111122 
COMPS,ioos:station:USF.COMPS:CAM:1,2014-12-05T19:12:00Z,27.7650,-82.6490,1020.2,1111122 
COMPS,ioos:station:USF.COMPS:CAM:1,2014-12-05T19:18:00Z,27.7650,-82.6490,1020.05,1111122 
COMPS,ioos:station:USF.COMPS:CAM:1,2014-12-05T19:24:00Z,27.7650,-82.6490,1020.01,1111122 
COMPS,ioos:station:USF.COMPS:CAM:1,2014-12-05T19:30:00Z,27.7650,-82.6490,1020.01,1111122 
COMPS,ioos:station:USF.COMPS:CAM:1,2014-12-05T19:36:00Z,27.7650,-82.6490,1020.0,1111122 
COMPS,ioos:station:USF.COMPS:CAM:1,2014-12-05T19:42:00Z,27.7650,-82.6490,1019.98,1111122 
COMPS,ioos:station:USF.COMPS:CAM:1,2014-12-05T19:48:00Z,27.7650,-82.6490,1019.9,1111122 
COMPS,ioos:station:USF.COMPS:CAM:1,2014-12-05T19:54:00Z,27.7650,-82.6490,1019.81,1111122 
COMPS,ioos:station:USF.COMPS:CAM:1,2014-12-06T15:00:00Z,27.7650,-82.6490,1022.02,1111122 
COMPS,ioos:station:USF.COMPS:CAM:1,2014-12-06T15:06:00Z,27.7650,-82.6490,1021.93,1111122 
COMPS,ioos:station:USF.COMPS:CAM:1,2014-12-06T15:12:00Z,27.7650,-82.6490,1021.86,1111122 
COMPS,ioos:station:USF.COMPS:CAM:1,2014-12-06T15:18:00Z,27.7650,-82.6490,1021.88,1111122 
COMPS,ioos:station:USF.COMPS:CAM:1,2014-12-06T15:24:00Z,27.7650,-82.6490,1021.88,1111122 
COMPS,ioos:station:USF.COMPS:CAM:1,2014-12-06T15:30:00Z,27.7650,-82.6490,1021.86,1111122 
COMPS,ioos:station:USF.COMPS:CAM:1,2014-12-06T15:36:00Z,27.7650,-82.6490,1021.85,1111122 
COMPS,ioos:station:USF.COMPS:CAM:1,2014-12-06T15:42:00Z,27.7650,-82.6490,1021.84,1111122 
COMPS,ioos:station:USF.COMPS:CAM:1,2014-12-06T15:48:00Z,27.7650,-82.6490,1021.74,1111122 
COMPS,ioos:station:USF.COMPS:CAM:1,2014-12-06T15:54:00Z,27.7650,-82.6490,1021.72,1111122 
COMPS,ioos:station:USF.COMPS:CAM:1,2014-12-06T16:00:00Z,27.7650,-82.6490,1021.6,1111122 
COMPS,ioos:station:USF.COMPS:CAM:1,2014-12-06T16:06:00Z,27.7650,-82.6490,1021.6,1111122 
COMPS,ioos:station:USF.COMPS:CAM:1,2014-12-06T16:12:00Z,27.7650,-82.6490,1021.56,1111122 
COMPS,ioos:station:USF.COMPS:CAM:1,2014-12-06T16:18:00Z,27.7650,-82.6490,1021.48,1111122 
COMPS,ioos:station:USF.COMPS:CAM:1,2014-12-06T16:24:00Z,27.7650,-82.6490,1021.36,1111122 
COMPS,ioos:station:USF.COMPS:CAM:1,2014-12-06T16:30:00Z,27.7650,-82.6490,1021.32,1111122 
COMPS,ioos:station:USF.COMPS:CAM:1,2014-12-06T16:36:00Z,27.7650,-82.6490,1021.2,1111122 
COMPS,ioos:station:USF.COMPS:CAM:1,2014-12-06T16:42:00Z,27.7650,-82.6490,1021.06,1111122 
COMPS,ioos:station:USF.COMPS:CAM:1,2014-12-06T16:48:00Z,27.7650,-82.6490,1021.02,1111122 
COMPS,ioos:station:USF.COMPS:CAM:1,2014-12-06T16:54:00Z,27.7650,-82.6490,1021.02,1111122 
COMPS,ioos:station:USF.COMPS:CAM:1,2014-12-06T19:00:00Z,27.7650,-82.6490,1018.84,1111122 
COMPS,ioos:station:USF.COMPS:CAM:1,2014-12-06T19:06:00Z,27.7650,-82.6490,1018.85,1111122 
COMPS,ioos:station:USF.COMPS:CAM:1,2014-12-06T19:12:00Z,27.7650,-82.6490,1018.84,1111122 
COMPS,ioos:station:USF.COMPS:CAM:1,2014-12-06T19:18:00Z,27.7650,-82.6490,1018.85,1111122 
COMPS,ioos:station:USF.COMPS:CAM:1,2014-12-06T19:24:00Z,27.7650,-82.6490,1018.86,1111122 
COMPS,ioos:station:USF.COMPS:CAM:1,2014-12-06T19:30:00Z,27.7650,-82.6490,1018.7,1111122 
COMPS,ioos:station:USF.COMPS:CAM:1,2014-12-06T19:36:00Z,27.7650,-82.6490,1018.6,1111122 
COMPS,ioos:station:USF.COMPS:CAM:1,2014-12-06T19:42:00Z,27.7650,-82.6490,1018.6,1111122 
COMPS,ioos:station:USF.COMPS:CAM:1,2014-12-06T19:48:00Z,27.7650,-82.6490,1018.54,1111122 
COMPS,ioos:station:USF.COMPS:CAM:1,2014-12-06T19:54:00Z,27.7650,-82.6490,1018.46,1111122 
COMPS,ioos:station:USF.COMPS:CAM:1,2014-12-09T17:48:00Z,27.7650,-82.6490,1017.06,1111122 
COMPS,ioos:station:USF.COMPS:CAM:1,2014-12-09T17:54:00Z,27.7650,-82.6490,1016.96,1111122 
COMPS,ioos:station:USF.COMPS:CAM:1,2014-12-09T18:54:00Z,27.7650,-82.6490,1016.22,1111122 
COMPS,ioos:station:USF.COMPS:CAM:1,2014-12-10T17:00:00Z,27.7650,-82.6490,1019.02,1111122 
COMPS,ioos:station:USF.COMPS:CAM:1,2014-12-10T17:06:00Z,27.7650,-82.6490,1018.94,1111122 
COMPS,ioos:station:USF.COMPS:CAM:1,2014-12-10T17:12:00Z,27.7650,-82.6490,1018.81,1111122 
COMPS,ioos:station:USF.COMPS:CAM:1,2014-12-10T17:18:00Z,27.7650,-82.6490,1018.65,1111122 
COMPS,ioos:station:USF.COMPS:CAM:1,2014-12-10T17:24:00Z,27.7650,-82.6490,1018.57,1111122 
COMPS,ioos:station:USF.COMPS:CAM:1,2014-12-10T17:30:00Z,27.7650,-82.6490,1018.49,1111122 